Location: Skalnate Pleso
(49.1889°N, 20.2450°E)
Time: 09:04:20
(UTC+01:00)

CZ-4B R/B - Pass Details

Date: 19 November 2019
Orbit: 486 x 653 km, 97.8° (Epoch: 15 December)

Event Time Altitude Azimuth Distance (km) Brightness Sun altitude
Rises 05:05:29 0° 6° (N) 2,571 6.2 -17.6°
Reaches altitude 10° 05:07:39 10° 357° (N) 1,688 5.2 -17.2°
Enters shadow 05:10:05 30° 322° (NW) 910 3.5 -16.8°
